Theta_e
333 331 331 331 329 330 331 331 329 329 329 329 329 328 328 327 327 327 327 327 328 327 327 327 325 323 321 321 321 323 323 322 321 321 321 321 320 320 319 319 320 322 323 324 324 326 327 326 328 331 329 327 326 324 322 321 320 319 319 320 321 321 320 320 319 317 315 314 313 313 312 312 312 311 311 311 311 312 311 309 309 310 310 310 310
332 330 329 330 329 330 332 331 329 328 328 328 328 328 327 327 326 326 326 326 327 327 327 326 323 322 320 319 319 320 321 321 321 320 320 320 319 318 318 319 321 322 323 323 323 324 324 324 327 328 326 324 324 322 321 320 319 317 317 318 319 319 319 319 318 317 316 314 313 313 312 312 312 311 311 312 312 312 311 310 310 312 311 310 309
333 330 329 330 329 329 330 329 329 329 328 328 327 327 327 327 326 326 325 326 327 327 326 324 323 321 319 318 318 318 319 320 321 320 320 319 318 318 319 320 322 323 322 322 322 323 323 323 325 326 324 323 322 321 320 319 318 316 316 316 318 317 317 318 318 318 317 314 313 313 312 312 313 312 312 312 313 313 312 311 312 314 313 311 309
331 330 330 330 328 327 327 327 328 328 327 327 327 327 327 327 326 324 324 326 326 326 325 323 322 320 318 317 317 317 318 319 319 318 318 318 318 318 319 320 321 321 321 321 321 321 322 322 323 323 323 323 321 320 320 319 318 317 316 316 316 316 316 316 316 317 317 315 313 313 312 312 313 313 313 313 314 313 313 314 314 314 313 311 309
328 329 330 328 326 325 326 327 329 328 327 326 326 326 326 326 325 323 323 324 325 325 324 323 322 319 317 316 317 317 318 318 317 317 317 317 318 318 318 319 320 320 320 320 320 320 320 321 321 322 322 322 322 321 320 320 318 317 317 316 316 316 316 315 315 316 316 315 314 313 313 313 313 314 314 314 314 314 314 314 314 314 313 311 308
328 329 329 329 328 327 328 328 328 328 328 327 326 325 326 325 324 323 323 323 324 324 324 323 321 318 316 316 317 316 316 316 316 316 316 317 317 317 318 319 319 319 319 319 319 319 319 320 320 321 322 322 321 321 321 320 320 319 318 317 316 316 317 316 316 316 316 316 315 315 314 313 314 314 314 314 315 315 315 314 314 314 313 310 308
328 328 328 329 328 328 328 328 328 328 328 328 326 325 325 325 324 323 323 323 323 323 323 322 320 317 316 316 316 316 316 316 317 317 317 318 318 318 318 318 318 318 318 318 319 319 319 319 319 320 320 321 321 321 321 321 321 320 320 319 319 318 317 317 316 316 316 317 316 316 315 315 314 315 315 314 315 316 315 315 315 314 313 311 310
326 327 327 327 327 328 328 328 328 328 328 328 327 325 325 325 324 323 323 323 322 321 322 322 320 317 316 316 316 316 317 317 318 319 319 320 320 320 320 320 320 320 320 320 319 319 319 318 318 319 319 320 320 320 321 321 321 320 320 319 319 319 319 318 317 316 316 317 316 316 316 316 315 316 316 315 315 315 316 315 315 314 313 313 312
326 326 327 326 326 327 327 327 327 326 327 328 327 325 325 324 323 322 322 322 320 320 321 321 319 318 316 316 317 317 318 320 321 322 322 322 322 322 322 322 322 322 323 323 322 322 321 320 320 321 320 318 318 318 319 319 319 320 320 320 320 319 319 319 319 318 317 317 317 317 317 317 316 316 316 316 315 315 316 316 316 315 314 314 314
326 327 327 326 326 325 324 324 324 324 325 326 326 325 324 324 323 322 321 321 320 320 320 319 319 318 317 317 319 318 320 322 322 322 323 323 323 323 323 323 323 323 324 324 324 324 323 323 323 322 319 317 317 316 316 316 315 316 318 320 321 321 320 319 319 318 318 318 317 317 317 317 317 317 317 316 316 316 316 316 316 316 315 315 315
326 326 326 326 325 324 323 323 322 322 323 324 325 325 324 324 323 322 321 321 320 320 319 319 319 319 318 318 320 320 323 323 321 321 322 323 324 324 324 323 324 325 324 324 325 324 324 324 323 321 318 318 317 316 315 316 316 315 315 317 319 321 321 321 321 320 319 319 318 318 317 318 318 318 317 317 317 316 316 316 316 316 316 315 315
325 325 325 324 323 323 323 323 322 321 322 322 323 324 324 323 323 322 322 322 320 320 320 319 320 319 318 320 321 322 323 321 318 319 320 320 322 324 324 324 324 324 324 324 324 324 324 324 325 323 321 320 320 320 318 317 316 316 316 316 317 318 318 319 321 322 322 321 320 319 318 318 318 318 318 318 317 317 317 317 316 316 316 315 315
324 324 323 323 324 324 323 322 320 319 320 320 321 322 322 323 323 324 323 322 321 321 320 320 320 319 319 320 321 322 322 319 316 318 318 319 320 321 323 324 324 323 323 323 324 324 324 324 323 324 324 322 321 322 322 321 320 318 317 316 316 317 316 316 317 319 320 321 321 321 319 318 318 318 318 318 318 318 317 317 317 317 316 315 315
323 323 324 324 324 323 323 322 320 319 318 317 319 320 320 319 320 320 321 322 322 322 322 322 321 320 320 320 321 322 322 319 317 318 318 318 319 319 321 323 324 324 324 324 324 324 323 322 320 321 322 322 322 322 322 323 324 322 320 318 317 317 318 317 316 316 316 318 320 322 321 320 319 319 318 317 318 318 317 317 317 317 316 315 315
318 319 321 322 323 323 323 323 321 320 319 317 317 318 318 319 319 319 318 319 320 320 321 322 322 322 322 321 322 323 321 319 318 318 318 318 318 318 320 322 324 324 324 325 325 324 323 321 319 318 319 321 322 323 322 322 323 324 323 322 321 320 320 320 319 317 315 316 318 321 322 322 320 319 318 318 317 318 318 318 317 316 315 315 314
314 315 317 320 321 322 322 323 322 321 320 319 319 319 320 320 320 319 318 318 318 318 318 319 321 322 321 321 322 322 320 317 318 317 317 318 317 317 319 322 322 322 323 323 323 324 324 322 319 317 317 318 321 324 323 322 321 322 323 323 322 321 322 322 321 319 317 316 315 317 322 323 321 319 319 319 318 318 318 317 316 315 315 315 314
311 313 316 318 319 320 320 321 321 321 321 321 321 321 321 320 320 319 319 319 318 318 317 318 320 322 322 322 323 322 320 317 317 316 316 315 315 316 319 321 320 320 321 321 320 321 323 322 321 318 317 319 322 324 324 322 320 320 321 322 322 322 323 323 321 319 318 316 314 314 318 320 320 319 320 319 318 318 317 315 315 315 315 314 314
310 312 314 315 317 318 319 320 320 320 321 321 322 322 322 322 321 321 321 320 320 321 321 321 322 322 322 323 322 322 321 320 318 317 317 317 316 317 320 322 321 321 322 321 320 321 322 322 321 320 319 320 322 323 323 322 320 320 320 321 321 321 321 321 320 319 318 316 315 314 315 317 317 318 318 317 316 316 314 314 314 314 314 314 314
308 309 311 312 313 315 317 318 319 319 319 320 320 320 321 322 322 322 321 320 321 322 322 322 321 321 321 321 321 321 321 320 319 319 318 318 318 318 319 321 322 322 322 321 321 321 321 321 321 321 321 321 320 321 321 320 319 319 320 321 321 320 319 318 316 315 315 313 313 313 313 313 314 314 314 314 315 314 313 313 314 313 313 313 312
306 306 308 310 311 312 314 315 316 317 318 318 318 318 319 320 320 320 321 321 320 320 321 320 320 320 320 319 319 320 321 319 318 319 319 318 318 318 318 320 321 321 321 321 320 320 320 319 319 320 321 319 318 319 318 317 317 318 319 321 321 319 318 316 314 313 312 311 310 310 309 309 310 311 311 311 312 312 310 310 311 311 311 311 309
305 305 306 307 308 310 311 312 313 313 314 314 315 316 317 317 318 319 320 320 320 320 320 320 318 318 318 318 317 318 318 317 316 316 317 317 318 317 317 319 320 319 319 320 320 320 320 319 319 319 320 319 318 317 316 315 316 317 317 319 319 318 317 316 314 313 312 310 309 308 307 306 307 308 308 308 308 308 307 307 307 306 306 307 306
304 305 305 306 306 306 307 308 309 310 311 312 312 313 314 314 315 316 317 317 318 318 319 319 318 318 318 317 317 315 313 312 311 312 313 314 315 316 316 317 317 317 319 320 320 320 320 319 319 319 319 317 317 316 316 315 316 316 316 316 316 317 316 314 313 312 310 309 308 307 306 306 307 307 307 306 306 305 304 304 304 304 304 304 304
302 303 304 304 304 304 304 305 306 307 308 309 310 310 311 311 312 313 314 315 315 315 316 316 316 316 316 316 317 315 312 310 308 307 308 310 311 312 313 314 314 314 315 317 318 318 318 318 318 317 317 316 315 315 315 315 315 315 316 316 315 314 314 313 312 311 310 308 307 306 307 307 306 307 306 305 304 303 302 301 301 301 301 301 301
301 301 302 302 303 303 303 303 304 305 305 306 306 308 308 309 309 310 311 312 312 312 312 313 313 314 314 314 315 314 314 313 309 306 305 306 307 307 308 309 310 311 312 314 315 315 315 315 314 314 314 314 314 314 314 314 314 314 315 315 314 313 312 312 311 310 309 308 307 307 307 307 307 307 305 303 302 301 300 299 298 297 297 297 297
299 300 300 301 301 302 302 302 303 303 304 304 304 305 306 306 307 307 308 308 309 309 309 310 310 311 311 312 312 311 311 312 311 309 307 306 307 306 306 307 307 308 309 310 311 311 312 311 311 311 311 312 312 313 312 312 313 313 313 313 312 312 311 311 311 310 309 308 308 308 308 307 306 305 303 302 301 300 298 297 296 296 295 295 295
299 299 300 300 300 300 301 301 302 302 303 303 303 303 304 304 304 305 306 306 306 306 306 306 308 308 309 309 309 309 308 309 311 310 309 309 309 309 308 307 307 307 308 308 309 309 308 308 308 308 308 308 309 310 311 312 312 312 312 311 310 310 310 310 310 310 309 308 308 308 308 306 304 302 302 301 300 298 297 295 295 294 295 295 295
300 300 300 300 300 299 300 300 301 301 301 302 302 302 303 304 304 303 304 304 305 305 305 305 306 306 307 307 307 307 307 308 308 308 307 306 306 307 308 309 309 309 309 309 309 309 308 307 307 306 306 306 307 307 308 309 310 310 310 309 308 308 309 309 309 309 308 308 308 308 306 303 302 301 300 299 298 297 296 295 295 295 296 296 297
301 301 300 300 300 300 300 300 301 301 301 300 300 299 301 302 303 301 299 299 301 303 305 306 305 304 305 306 306 306 307 305 303 303 303 302 303 304 306 308 308 308 309 308 308 308 307 307 307 307 307 307 307 307 307 307 307 306 307 307 306 306 307 307 308 308 308 307 307 305 302 301 300 300 298 298 298 297 296 296 296 296 296 296 297
300 300 300 300 301 301 301 301 301 302 302 301 299 298 297 299 300 299 297 295 296 298 300 302 301 302 305 306 304 304 305 302 300 300 301 301 302 303 304 305 305 305 305 305 305 306 307 307 307 307 307 307 307 307 307 307 307 306 305 305 305 306 306 307 307 307 307 307 306 303 300 299 299 298 298 298 297 296 296 296 297 296 296 296 297
300 299 299 299 300 301 301 301 302 302 303 302 301 298 297 297 298 297 296 295 296 296 297 298 298 299 303 304 302 301 301 300 299 299 299 299 299 301 302 303 304 304 304 304 305 305 306 306 307 307 306 306 306 306 306 307 306 306 305 305 305 305 306 306 305 306 307 307 304 301 300 299 298 297 297 296 296 295 295 296 296 296 296 296 297
301 300 299 299 299 300 301 301 302 302 302 302 302 301 299 297 296 296 296 296 296 296 297 298 298 299 300 302 301 300 299 298 298 298 298 298 298 298 299 301 302 304 304 305 305 305 305 306 306 305 305 305 305 305 305 305 305 305 305 304 304 303 304 304 304 304 304 303 301 299 299 298 297 297 296 296 295 295 295 295 296 296 296 296 296
301 301 300 300 300 300 301 301 302 302 302 302 302 302 301 299 297 296 296 296 297 297 297 298 299 299 299 300 300 299 299 298 298 298 298 297 297 297 298 298 300 302 303 304 304 305 305 305 305 304 304 304 304 304 304 304 304 304 304 304 303 302 302 303 303 302 301 300 298 298 297 297 296 296 295 295 295 295 294 294 294 294 294 295 295
299 300 301 301 301 301 301 301 301 302 302 302 302 302 302 302 301 299 298 297 297 297 297 297 298 299 299 299 299 299 299 298 298 298 298 297 297 298 297 297 300 301 302 303 304 304 304 304 304 304 304 304 304 304 304 304 304 304 304 304 304 302 301 301 301 300 299 298 297 296 296 295 295 295 294 294 294 294 293 293 293 294 294 294 294
298 297 299 300 301 301 301 301 301 302 302 302 302 301 301 302 302 301 300 300 299 299 298 297 297 297 298 298 299 299 298 298 298 298 298 298 298 297 297 298 301 302 302 303 304 304 304 304 304 304 304 304 304 303 303 303 303 303 303 303 303 301 300 300 299 298 297 296 296 295 294 294 294 294 293 293 293 293 293 293 293 293 293 293 293
299 298 298 299 300 300 301 301 301 301 301 301 301 301 301 301 301 301 301 301 301 301 300 300 298 298 297 298 298 298 298 298 298 298 298 298 298 298 299 300 302 302 303 303 303 303 303 303 303 303 303 303 303 303 303 302 302 302 302 301 300 299 298 297 297 296 296 295 294 294 293 293 293 293 293 293 293 293 293 293 293 293 293 293 293
299 299 299 299 300 300 300 300 300 299 300 301 300 300 301 300 301 301 301 300 300 301 301 300 300 299 299 298 298 298 298 298 298 298 298 299 299 300 300 301 301 301 301 302 302 302 302 302 302 302 302 302 302 302 302 301 301 301 301 299 298 297 296 295 295 294 294 293 293 293 293 293 293 293 293 293 292 293 293 293 293 293 293 293 293
299 299 298 299 299 300 300 299 298 298 299 300 300 300 300 300 300 300 300 299 299 300 300 300 300 300 300 299 298 298 299 299 298 299 299 299 299 300 300 300 300 300 301 301 301 301 301 301 301 301 301 301 301 301 301 300 300 300 299 297 296 295 295 294 294 293 293 293 292 292 292 292 292 292 292 292 292 292 292 293 293 293 293 292 292
298 297 296 296 297 299 299 299 298 298 299 299 299 299 299 299 299 299 299 299 298 299 299 299 299 299 298 297 297 298 299 299 299 299 299 299 299 299 299 299 300 300 300 300 300 300 301 301 300 300 300 300 300 300 299 299 298 298 296 296 295 295 295 294 293 293 293 292 292 292 292 292 292 292 292 292 292 292 292 293 293 293 292 292 291
298 297 296 295 295 297 298 298 298 298 298 299 298 298 298 298 299 299 299 298 298 298 298 298 298 298 297 296 296 297 298 299 299 299 299 299 299 299 299 299 299 299 299 299 300 300 300 300 300 299 299 299 299 299 299 298 298 297 295 295 294 294 294 294 293 292 292 293 293 293 293 292 292 292 292 292 292 293 293 293 292 292 292 292 292
298 297 296 295 296 297 297 297 298 298 298 298 298 298 297 298 298 298 298 298 297 298 298 298 298 297 295 295 295 296 297 298 299 298 298 298 298 298 298 298 298 298 298 298 298 298 298 298 298 297 297 297 297 297 297 297 297 296 295 295 294 294 293 293 292 292 293 293 293 293 293 292 292 292 292 292 293 293 293 292 292 292 292 291 292
297 297 296 296 297 297 297 297 297 297 297 297 297 297 297 297 297 297 297 297 297 297 297 297 297 296 295 294 294 295 296 298 298 298 298 297 297 297 297 297 297 297 296 296 296 296 295 295 295 294 294 294 295 295 295 296 296 295 295 295 294 293 293 293 293 293 293 293 293 293 293 292 292 292 292 292 292 292 292 292 292 292 292 292 291
297 297 297 297 297 297 297 297 297 297 297 296 296 296 296 296 296 296 296 296 296 296 296 296 296 296 295 294 294 295 296 297 297 297 297 297 296 296 296 296 296 295 295 294 294 294 294 293 292 291 292 293 294 294 294 294 294 294 294 294 294 293 292 292 292 293 293 293 293 293 293 292 292 292 292 292 292 292 292 293 292 292 292 292 292
297 297 297 297 297 297 297 297 297 297 296 296 295 295 296 296 296 296 295 295 295 295 296 296 296 295 295 294 294 295 296 296 296 296 296 295 295 295 295 294 294 294 293 293 292 292 292 291 291 290 291 292 292 292 292 292 293 293 294 294 293 293 292 292 292 292 293 293 293 292 292 292 292 292 292 292 292 292 292 292 292 292 292 292 292
297 297 297 297 297 297 297 297 296 296 295 294 294 295 295 295 295 295 295 295 295 295 295 295 295 295 295 294 295 295 295 294 294 294 294 294 293 293 293 293 292 292 292 292 292 291 291 290 290 290 289 290 290 290 290 291 292 292 293 293 292 292 292 291 292 292 292 292 292 292 291 291 292 292 292 292 292 292 292 292 292 291 291 291 291
297 297 297 297 297 297 297 297 296 295 295 295 295 295 295 295 295 295 295 295 295 295 295 295 295 295 295 294 294 294 294 293 292 293 293 293 292 292 291 292 292 292 292 292 293 292 291 290 290 290 290 289 290 290 290 290 290 291 291 291 291 291 291 291 291 291 291 291 292 292 291 291 291 291 292 292 292 292 292 292 291 291 291 291 291
296 297 297 297 297 297 297 297 296 296 296 296 295 295 295 294 294 294 294 294 294 294 295 295 295 295 294 294 294 294 293 292 292 292 292 291 291 291 291 291 291 292 292 291 291 292 292 292 292 292 291 289 289 289 289 289 290 290 290 290 290 290 290 291 291 291 291 291 291 291 291 292 292 291 291 291 291 291 291 291 291 291 291 290 290
296 296 297 297 297 297 297 296 296 296 296 296 295 295 295 294 294 294 293 293 294 294 294 295 295 294 294 294 294 294 293 293 292 291 291 290 290 290 291 290 289 290 291 290 289 290 291 291 291 291 290 289 289 288 287 288 289 290 290 290 290 290 291 291 291 292 292 292 291 291 291 291 292 292 291 291 290 291 291 291 290 290 290 290 290
296 296 296 296 297 297 297 296 296 296 296 295 295 295 294 294 294 294 294 294 294 294 294 294 294 294 294 294 294 294 294 293 293 292 291 290 290 290 291 290 289 289 289 289 288 289 289 289 289 288 288 288 288 288 287 287 288 289 289 289 290 290 290 291 292 292 292 291 291 290 290 289 290 290 290 290 289 289 290 290 290 290 290 290 290
296 296 296 296 296 297 297 296 296 296 296 295 295 295 294 294 294 294 294 294 294 294 294 294 294 294 294 294 294 294 294 293 293 293 292 291 290 290 290 291 290 289 288 288 288 288 288 288 288 287 287 286 287 287 287 287 287 287 287 287 287 288 288 289 289 289 289 289 288 288 288 288 288 288 288 288 287 287 288 289 289 289 289 289 289
296 296 296 296 296 296 296 296 296 296 296 295 295 295 294 294 294 294 294 294 294 294 294 294 294 294 294 294 293 294 293 293 293 293 292 291 290 290 290 291 290 288 287 287 287 286 286 286 286 286 285 285 285 285 285 286 286 286 286 286 286 286 286 287 287 287 287 287 287 287 287 287 287 287 287 287 287 287 287 287 288 288 288 288 289
296 296 296 296 296 296 296 296 296 296 296 296 295 295 294 294 294 294 294 294 294 294 294 294 294 294 294 293 293 293 293 293 293 293 292 291 290 290 290 290 289 288 286 286 286 285 285 284 284 284 283 283 283 282 282 282 283 283 282 282 283 283 284 284 284 284 285 285 285 286 286 286 285 286 286 287 287 287 287 286 286 287 287 287 288
Wind_Speed
19 21 19 16 17 18 16 15 14 14 15 16 15 13 12 12 11 11 10 10 11 11 11 11 10 9 8 8 8 8 7 7 7 6 6 6 6 6 6 5 4 5 5 5 5 5 6 6 7 8 9 10 10 9 9 7 6 7 7 7 9 10 12 11 10 11 10 11 13 14 15 15 14 15 15 14 14 13 12 11 9 9 8 5 5
14 16 17 15 17 19 17 15 15 14 15 15 14 13 12 12 11 11 10 10 11 11 11 11 9 8 8 8 8 8 8 9 8 7 7 7 7 6 6 6 6 6 6 6 7 6 6 6 7 8 9 10 10 9 9 7 7 7 6 7 9 10 12 13 12 12 11 12 13 14 15 14 13 15 15 15 14 13 13 12 9 9 9 6 5
11 11 12 12 17 19 17 15 15 15 15 14 14 13 12 12 11 10 10 10 11 11 11 10 9 8 8 8 8 9 9 9 8 8 8 8 8 7 6 7 7 7 7 7 7 6 7 7 8 8 9 9 8 8 8 7 7 7 6 7 8 7 10 13 13 12 12 12 13 14 15 14 13 14 15 14 14 13 13 12 10 10 10 8 7
10 10 7 6 11 14 15 14 13 16 16 14 14 14 13 12 11 10 11 11 11 11 10 10 9 8 8 9 9 9 10 10 8 8 9 9 9 8 8 8 8 8 7 7 7 7 7 8 9 9 9 9 8 7 8 6 5 6 6 7 8 6 6 9 10 11 12 12 12 13 14 14 13 14 15 14 13 13 13 12 10 10 9 9 9
10 11 6 6 11 12 13 12 10 14 15 14 15 15 13 13 11 11 11 11 12 11 10 10 9 8 9 9 10 10 10 10 9 9 9 9 9 9 9 9 8 7 7 7 7 7 6 7 7 8 8 8 8 7 8 7 5 5 6 6 8 7 6 7 9 11 11 12 12 12 13 14 13 13 15 14 13 13 13 12 11 10 10 11 10
11 15 11 12 15 14 15 13 9 11 13 13 14 14 14 13 12 11 11 11 11 10 10 10 9 9 10 10 11 11 11 10 10 10 10 10 9 9 9 8 8 8 7 7 7 7 6 6 6 7 7 7 7 6 7 7 5 5 6 6 7 8 7 7 9 11 11 11 12 12 13 14 13 13 15 15 15 14 14 13 12 12 11 11 10
12 16 15 16 17 16 14 11 8 10 11 11 12 12 13 13 12 11 11 11 11 11 10 10 9 9 10 11 12 12 12 11 11 11 11 10 10 9 9 8 8 8 7 7 7 6 6 6 6 7 7 7 7 6 6 6 5 5 5 5 5 7 8 9 9 11 12 11 12 13 13 14 15 14 15 16 16 15 15 14 13 13 13 11 10
13 15 18 19 17 16 14 12 12 12 11 11 12 12 12 12 11 11 10 10 11 11 11 10 10 9 10 11 12 12 11 11 11 10 10 10 10 9 9 8 8 8 7 7 7 7 7 7 7 7 7 7 8 7 7 7 7 7 7 8 8 8 9 10 10 11 12 13 13 13 13 14 15 15 15 16 17 16 16 16 15 14 13 12 11
14 14 18 20 19 17 17 15 15 14 11 9 11 11 11 11 10 10 10 10 10 10 11 11 10 10 10 11 11 11 11 10 10 9 9 10 10 9 9 8 8 8 7 7 7 7 7 7 7 7 8 8 8 8 7 8 7 7 7 8 10 11 12 12 12 12 12 13 14 14 14 15 16 16 17 18 18 17 17 16 16 15 14 13 13
14 15 16 17 17 16 14 15 15 12 10 10 9 10 11 10 9 10 9 9 10 10 11 12 11 10 11 11 10 11 9 8 9 8 7 9 9 8 8 8 7 7 7 7 7 6 7 7 6 8 9 9 9 8 8 8 7 8 7 6 7 10 12 13 14 15 15 15 15 16 16 17 17 18 18 18 18 18 18 17 17 16 15 15 14
16 17 16 14 14 13 12 14 14 13 13 13 12 10 10 10 9 9 9 9 9 8 9 12 11 10 11 11 9 9 5 4 8 8 5 7 7 5 7 7 6 7 7 7 7 7 8 8 8 9 9 8 8 7 7 6 6 8 9 9 8 9 10 11 12 13 14 15 16 17 17 17 18 19 19 18 18 18 18 18 18 17 16 16 14
17 18 17 15 15 15 14 14 14 14 14 14 14 13 11 10 9 9 8 7 7 8 9 10 10 9 10 10 9 7 4 4 8 8 5 5 4 3 4 6 6 7 7 8 8 9 9 9 9 10 10 10 9 7 6 6 6 7 9 10 12 12 13 14 14 12 12 13 15 16 18 18 18 18 19 18 19 19 18 18 18 18 17 17 15
16 16 15 15 15 16 16 16 16 16 14 13 14 15 13 11 10 11 10 7 5 6 7 9 9 9 9 9 8 7 6 6 7 7 5 6 5 4 5 6 6 7 8 8 9 9 7 6 6 7 8 9 9 8 7 7 7 8 9 10 13 14 15 17 18 16 15 14 13 15 18 18 17 19 20 19 18 19 20 19 19 18 18 19 16
16 15 13 13 14 15 15 16 17 17 15 14 14 15 14 12 11 11 11 9 7 7 6 6 6 6 6 7 7 7 7 6 6 6 6 6 6 6 6 6 7 7 8 9 9 9 10 10 11 12 10 9 9 9 8 7 7 7 8 9 11 14 15 16 18 19 19 16 14 15 17 18 17 17 19 22 22 21 21 20 19 18 17 15 11
17 15 13 11 13 13 14 15 16 15 15 14 13 14 13 11 9 9 11 11 9 8 7 6 5 4 3 3 4 6 5 4 5 6 7 6 6 6 6 7 8 8 9 10 10 11 12 14 16 14 13 14 15 11 9 7 8 8 9 9 10 12 13 15 17 19 20 18 16 14 15 18 19 16 16 22 24 23 20 19 19 18 13 11 10
17 16 15 13 12 12 11 12 14 15 14 15 14 13 12 10 9 10 11 11 10 10 8 7 6 5 3 2 3 3 4 5 5 6 6 6 6 6 6 7 8 10 11 12 13 12 11 13 16 16 15 18 18 14 11 8 8 10 11 11 12 12 14 17 20 21 21 21 20 17 14 16 18 17 16 19 21 21 18 15 15 15 12 11 12
17 16 15 15 14 14 14 13 13 14 13 14 13 12 12 11 10 10 10 10 10 10 10 8 7 6 4 3 3 4 5 6 6 7 6 6 6 6 6 7 9 11 12 12 14 14 13 15 17 16 16 17 15 13 12 10 9 11 13 13 13 13 15 18 21 22 22 22 22 20 17 17 18 18 20 20 22 23 20 14 13 14 13 13 13
17 16 15 14 15 15 16 16 16 15 13 11 10 10 10 10 9 9 10 10 9 10 10 10 10 8 6 5 4 5 5 5 5 6 7 7 8 8 7 8 9 11 11 12 14 14 14 15 14 14 14 15 12 10 11 11 10 11 13 14 15 15 14 15 18 21 21 20 20 19 17 16 16 17 19 20 21 21 18 15 14 16 16 15 14
16 16 15 15 15 15 16 16 15 15 14 13 11 9 8 7 8 9 11 11 9 8 9 10 10 8 7 5 4 3 3 4 4 5 6 6 7 8 8 8 9 10 10 12 13 14 15 15 13 11 11 12 11 10 11 12 12 12 12 13 13 14 13 10 12 14 14 13 15 15 14 13 13 13 14 17 17 16 15 15 15 16 16 16 15
16 16 15 15 15 15 15 15 14 14 14 13 12 12 9 7 6 8 11 11 9 7 7 9 9 7 5 5 5 3 1 3 4 4 4 4 5 5 5 7 9 10 10 11 12 13 14 14 11 9 9 10 11 12 13 13 14 13 12 11 11 13 13 11 10 10 8 7 8 7 7 8 11 13 12 14 15 14 14 13 11 11 13 14 14
15 15 15 15 15 15 15 14 13 13 12 12 12 12 11 8 6 7 8 8 7 7 8 10 10 9 7 6 6 5 3 2 2 2 1 2 2 2 2 4 8 9 10 10 9 10 10 8 4 6 9 11 12 14 15 15 15 14 13 12 13 14 15 13 12 11 9 8 8 9 8 7 9 12 13 12 12 12 11 10 6 6 6 4 3
15 15 15 15 15 15 15 14 13 12 11 11 10 10 10 9 8 8 7 7 7 7 7 8 10 11 12 10 8 6 4 4 5 4 4 3 2 3 4 4 6 7 8 9 8 9 8 5 4 7 11 13 15 16 16 16 16 15 14 14 15 15 12 11 10 10 11 11 10 10 9 7 9 10 10 9 9 8 7 7 8 8 8 9 8
15 15 15 14 14 14 14 14 13 12 11 10 10 9 9 8 7 7 6 6 6 6 5 5 6 8 9 9 9 7 4 4 6 6 6 5 4 2 1 2 4 5 6 8 9 9 7 5 5 8 12 14 16 16 16 16 17 17 15 15 16 16 13 11 11 12 14 14 13 12 11 12 13 11 10 9 9 9 7 6 6 8 8 8 8
14 14 14 13 13 12 12 12 11 11 11 10 10 9 9 8 7 7 6 5 5 5 4 4 3 3 3 4 5 5 3 3 4 6 7 6 5 5 4 4 4 4 5 7 9 9 8 8 9 11 14 16 16 15 15 15 16 18 17 15 16 16 13 12 13 14 15 15 15 14 13 14 15 14 13 14 13 11 8 6 5 5 5 5 4
14 13 12 12 12 11 10 11 11 11 10 9 9 9 9 8 8 7 6 6 5 5 4 4 3 3 3 3 3 3 2 2 1 5 9 9 9 9 9 7 6 6 5 7 9 11 11 12 13 14 14 15 15 15 14 14 14 16 16 14 16 17 14 13 14 14 15 15 14 14 15 14 14 15 17 17 14 10 8 6 5 4 4 5 5
12 11 10 10 11 10 9 9 10 10 9 9 8 8 8 7 7 7 7 6 5 4 4 3 3 3 2 2 2 1 1 0 1 5 9 10 10 12 12 10 10 11 9 8 10 12 12 13 13 14 15 14 14 15 15 15 14 14 13 14 16 18 17 15 15 15 14 14 14 14 14 14 15 16 15 12 10 9 8 6 5 4 3 3 2
8 8 7 7 8 8 9 9 8 8 9 9 8 8 8 8 8 8 9 8 6 5 4 4 4 4 3 3 3 2 2 6 8 7 8 8 8 9 10 10 9 11 10 8 9 12 14 16 16 15 15 15 14 13 13 14 12 11 11 14 16 17 15 15 15 15 15 17 16 13 13 16 17 15 13 11 11 11 9 8 7 6 4 4 2
6 6 6 6 6 6 7 7 6 6 7 8 9 10 9 9 9 10 10 9 8 7 7 6 7 6 6 5 4 3 6 13 13 10 9 10 9 8 9 9 8 9 8 9 10 11 14 16 15 12 12 13 11 10 11 10 9 8 8 11 14 16 15 16 16 15 15 16 15 13 14 18 17 14 13 11 10 9 9 8 8 7 5 4 2
6 6 6 6 6 5 5 6 6 6 6 8 10 12 11 9 8 9 9 9 7 7 7 8 8 7 7 7 7 6 9 12 12 10 10 10 9 8 9 9 9 10 10 13 14 13 12 13 12 10 10 11 10 10 10 10 9 8 8 8 10 13 14 15 16 15 14 15 15 16 18 19 18 15 14 12 10 10 9 8 6 6 4 2 3
6 7 7 7 7 6 6 6 7 7 6 6 8 11 13 13 11 10 10 11 10 8 8 7 6 5 6 7 7 7 8 9 9 9 10 10 10 10 9 8 9 10 11 12 13 11 9 10 10 10 10 10 10 11 11 11 10 10 10 8 9 11 12 15 18 18 16 16 19 21 20 19 19 17 16 15 15 13 11 9 7 5 3 1 3
5 6 7 8 8 8 7 7 7 7 7 5 5 8 11 13 14 14 13 12 11 10 9 7 6 6 6 6 6 7 8 8 8 9 10 11 11 11 10 10 9 9 10 10 10 9 9 10 10 10 11 11 11 11 12 12 11 12 12 10 10 11 14 16 17 17 15 16 20 21 21 20 19 18 17 17 15 13 11 9 7 4 2 1 3
6 6 6 6 7 7 6 7 7 6 6 6 5 4 6 9 11 12 11 11 11 10 9 8 7 7 7 6 5 6 8 8 9 10 10 11 11 12 12 11 10 9 10 10 8 8 9 11 11 12 12 12 13 13 12 11 11 11 12 12 11 11 14 15 15 14 15 17 19 19 19 18 17 18 18 17 15 13 11 9 7 5 2 1 3
8 7 6 5 6 7 6 6 7 7 7 7 7 6 6 5 6 8 9 9 10 11 11 11 9 8 7 7 7 7 8 9 9 10 10 11 12 12 12 11 10 9 9 8 7 8 9 10 11 12 11 11 12 12 11 10 10 11 12 13 10 9 13 16 15 14 16 17 15 15 16 14 14 16 17 16 14 12 10 8 6 4 2 3 4
8 8 8 6 6 7 7 7 7 7 7 7 7 7 7 7 6 4 5 6 7 8 9 11 11 9 8 8 8 8 8 9 10 10 11 11 11 11 11 11 9 6 6 6 7 8 9 9 10 11 11 11 11 11 11 11 11 12 12 11 9 8 11 14 14 14 15 15 14 15 15 14 13 14 14 13 12 10 8 6 4 3 3 4 5
6 7 8 8 7 6 7 8 8 7 6 6 7 7 7 6 6 6 5 4 3 3 6 8 9 9 10 10 9 8 10 11 12 13 13 12 11 9 9 9 8 6 5 7 8 8 8 8 9 10 10 10 11 11 11 11 12 12 12 10 9 8 10 12 12 13 14 15 16 16 15 13 12 11 10 10 9 7 5 4 3 2 3 4 6
5 5 7 8 7 7 8 9 9 8 6 5 5 6 7 6 6 6 6 6 5 4 3 5 6 7 10 11 9 8 10 11 12 14 14 13 11 10 9 8 7 7 7 8 8 8 9 9 9 10 10 10 10 11 11 11 11 11 9 6 6 6 9 10 11 13 14 15 14 13 12 11 10 8 7 7 6 4 3 3 2 3 5 6 6
7 8 8 7 7 6 6 7 8 7 5 5 4 4 6 6 6 6 7 7 6 6 6 6 4 5 8 11 10 8 7 6 6 10 12 12 12 11 10 8 8 9 9 9 9 9 9 9 9 10 10 10 11 11 10 10 10 9 6 3 5 8 10 11 11 13 14 13 12 11 10 9 9 7 6 5 4 2 2 3 4 5 5 5 6
6 9 8 5 6 7 4 4 5 6 5 5 5 5 6 6 5 6 7 7 6 6 6 6 6 6 9 12 11 9 8 5 4 7 10 11 11 10 9 9 9 9 9 10 10 10 10 9 9 10 10 10 11 11 10 8 7 6 3 4 7 10 10 11 12 13 13 12 11 10 9 9 8 7 5 4 2 3 4 4 5 5 5 5 7
3 6 6 5 6 8 7 4 4 4 4 4 5 5 5 5 6 6 6 6 6 6 6 6 6 7 10 12 12 11 10 7 6 7 9 10 10 10 10 10 10 10 10 11 11 11 10 10 10 9 9 9 9 10 9 8 6 3 2 5 8 10 10 11 12 12 11 9 9 9 10 9 8 6 4 2 4 6 6 4 5 6 6 6 7
2 4 6 5 4 4 4 4 4 4 4 4 4 4 5 5 5 5 5 6 6 6 6 6 5 7 10 13 11 10 10 8 7 9 9 9 10 10 10 10 10 10 11 11 11 11 11 10 10 10 10 9 9 9 9 9 6 3 2 5 6 8 11 13 13 12 10 9 9 11 11 9 6 5 3 4 6 5 4 3 5 6 6 6 5
3 3 4 4 2 2 3 4 4 4 4 4 4 5 5 5 5 5 5 6 6 5 5 5 5 8 11 12 8 7 9 8 8 9 9 9 9 10 10 11 11 11 11 11 11 11 11 10 11 11 10 9 8 8 8 8 7 5 3 4 6 7 11 14 14 13 11 10 11 12 10 6 5 4 4 4 3 3 3 4 5 5 5 5 5
3 2 2 2 2 2 3 3 4 3 3 4 5 5 4 4 5 5 5 5 5 5 6 6 5 8 11 11 8 7 8 8 8 9 8 8 9 10 10 11 11 11 11 11 11 12 11 11 11 12 11 9 7 5 5 6 6 5 4 4 6 8 10 12 13 13 11 9 10 9 6 4 5 5 3 2 3 5 6 5 5 5 5 6 4
2 2 2 2 2 3 3 3 3 3 4 4 4 4 4 4 4 4 4 4 5 5 6 7 7 8 10 10 9 9 8 8 8 8 8 8 9 10 10 11 11 11 11 12 11 11 11 11 11 11 12 13 12 9 7 5 4 4 4 1 4 6 8 11 13 13 11 9 7 5 3 4 5 4 2 2 4 7 7 5 5 6 7 6 5
1 0 1 2 1 2 2 2 3 4 3 4 4 4 3 3 3 4 4 4 5 5 6 7 8 8 9 9 8 8 8 7 7 8 9 9 9 9 10 10 10 11 12 13 13 12 11 11 11 11 11 13 15 14 12 8 5 4 4 3 4 5 7 9 11 10 9 8 7 6 4 3 3 3 3 4 4 6 7 6 5 6 7 7 8
1 1 1 2 1 1 2 2 3 3 3 4 4 3 3 3 3 3 3 3 4 5 5 7 8 8 8 8 8 7 7 7 7 8 9 9 10 11 11 11 11 12 13 15 15 14 13 12 12 13 13 12 13 14 15 13 9 6 3 4 7 8 9 10 10 9 7 7 7 7 4 2 2 3 4 4 4 5 6 6 5 5 5 7 7
2 2 1 1 1 0 1 2 2 2 3 2 2 1 2 2 3 3 3 3 3 4 5 6 6 7 7 8 8 7 8 8 8 9 9 9 11 13 14 13 13 14 14 15 15 15 15 15 14 15 15 15 14 14 14 14 13 10 7 6 7 8 9 9 10 9 9 8 7 5 2 3 4 5 8 8 6 6 6 7 7 6 6 6 7
2 2 2 2 2 1 2 1 1 2 2 2 2 1 1 2 2 2 2 2 2 3 4 5 5 5 5 6 6 7 7 7 8 9 10 11 12 13 14 14 13 13 14 14 13 13 13 13 13 13 13 13 13 13 13 13 13 12 11 9 8 8 8 8 8 9 9 10 9 5 0 3 3 3 4 5 5 7 7 6 6 6 6 6 7
3 3 3 3 3 3 3 2 1 1 2 2 2 2 2 1 1 1 1 2 2 2 3 4 4 4 4 4 4 5 5 6 7 8 9 10 11 11 12 11 11 10 11 12 12 11 11 11 11 12 12 11 11 11 11 12 12 12 11 11 9 9 8 8 7 6 6 7 6 3 1 3 3 3 2 1 3 6 8 7 7 7 6 6 6
3 3 3 3 3 4 3 3 3 3 2 2 2 2 1 1 1 1 1 1 2 2 2 2 3 3 3 3 3 4 4 4 5 5 6 7 8 8 9 9 9 8 8 9 9 9 9 9 9 9 10 10 10 9 9 9 9 9 9 9 9 8 7 6 5 5 5 4 2 0 1 2 3 4 4 4 4 5 5 6 6 7 8 7 6
3 3 4 4 4 4 4 4 4 3 3 2 2 2 2 1 1 1 1 1 1 2 2 2 2 1 2 2 2 2 3 3 3 3 3 4 5 6 6 7 6 6 6 7 7 8 8 8 8 8 8 8 8 8 8 7 7 7 6 6 6 5 4 3 3 2 2 2 3 2 1 2 2 2 3 3 3 3 3 4 4 5 6 7 7
3 4 4 4 5 4 4 5 5 4 4 4 3 2 3 3 2 2 3 2 1 2 1 1 1 1 1 1 0 0 1 1 1 1 1 2 2 3 4 4 4 4 5 6 6 6 6 7 7 8 8 7 6 6 6 6 6 7 6 6 5 4 2 2 1 0 1 1 3 3 2 2 2 2 2 2 2 2 3 4 4 5 6 6 6
Wind_Direction
167 165 171 177 172 173 174 170 168 163 157 156 157 158 156 152 151 151 150 149 150 154 156 155 153 151 152 154 155 157 157 156 156 153 151 153 149 146 153 164 153 141 138 137 140 143 145 149 151 153 153 145 141 144 149 151 151 151 151 153 161 171 177 172 147 140 154 159 159 163 165 166 166 163 162 160 161 160 163 172 165 149 155 160 144
166 168 178 182 173 172 172 165 162 159 156 157 159 158 155 154 155 154 155 153 153 157 158 154 155 155 155 157 158 159 161 161 161 159 154 150 147 147 152 148 134 131 130 127 129 133 135 137 141 147 148 146 149 150 151 157 153 147 149 152 160 177 178 164 152 154 158 161 169 169 170 177 174 169 168 167 170 172 168 171 172 166 170 176 177
157 166 184 182 168 167 168 165 160 155 153 155 156 155 153 153 154 155 155 154 154 158 157 154 156 157 157 160 160 162 163 162 163 162 155 153 152 148 144 136 130 135 137 133 131 128 127 127 132 143 147 149 157 154 155 176 170 146 141 143 150 175 174 156 155 164 163 167 176 172 174 187 185 174 173 173 177 180 176 177 185 184 176 169 183
148 166 194 177 149 149 156 162 160 155 155 155 154 155 154 151 153 156 153 153 156 157 156 158 161 159 159 161 162 163 162 162 164 161 157 158 156 149 144 142 141 145 142 136 135 132 129 132 139 149 152 155 165 162 163 193 196 154 144 142 146 158 160 153 160 170 170 174 182 179 178 188 193 181 176 178 182 187 186 185 189 193 182 170 186
153 174 179 117 118 133 150 161 164 158 155 156 155 154 153 153 156 156 152 154 160 159 160 164 163 162 164 164 163 161 161 163 161 157 157 158 156 152 150 149 146 142 136 131 132 132 135 141 144 149 155 162 171 173 175 193 204 171 159 156 155 154 155 164 169 170 173 177 184 186 180 185 197 191 182 182 184 192 198 192 194 200 182 171 191
155 168 162 135 135 148 155 158 169 166 154 154 158 155 152 155 158 156 154 157 161 163 167 169 168 168 169 167 163 160 161 162 157 154 155 155 156 153 149 149 146 141 141 138 135 135 139 144 145 149 159 168 173 179 181 188 197 185 180 182 173 164 172 190 184 174 179 184 185 188 184 187 200 199 192 191 188 194 202 195 199 204 181 171 198
150 156 151 143 144 149 149 143 149 161 156 153 157 156 154 157 159 158 158 159 162 168 172 172 174 174 172 169 164 160 161 160 155 155 155 153 155 153 150 152 149 149 153 148 144 148 149 149 152 158 167 174 179 189 190 191 203 205 201 209 205 184 188 208 207 188 187 191 191 193 190 191 202 204 201 201 199 203 203 197 201 202 188 184 199
149 145 136 137 138 137 137 132 128 135 146 158 164 161 154 157 159 157 161 161 163 172 175 174 177 176 173 171 164 161 162 160 159 161 160 158 156 155 158 158 153 156 160 154 155 163 165 165 168 172 179 181 181 185 187 193 206 212 211 218 224 218 208 216 223 212 203 203 201 201 198 197 203 207 204 203 208 211 207 202 205 202 197 203 208
147 134 130 139 142 136 137 139 131 125 122 136 159 161 153 156 159 156 162 165 166 174 175 174 178 176 174 172 165 165 166 161 162 163 156 159 164 161 162 163 161 163 163 159 163 170 171 171 177 184 190 192 192 193 195 203 213 217 219 219 220 223 223 223 225 224 219 215 210 208 209 207 205 207 208 206 208 212 209 207 211 211 208 208 213
138 132 130 138 143 141 141 140 136 132 120 117 137 154 152 151 152 154 162 165 168 176 176 174 178 177 175 173 167 168 169 163 169 167 142 147 162 167 170 171 170 173 175 173 176 184 182 180 193 202 200 200 204 208 212 221 232 238 246 250 233 226 229 229 227 227 225 223 218 213 215 216 209 206 213 214 210 211 212 210 210 213 212 210 214
135 134 131 130 128 128 131 132 133 134 131 124 125 136 146 152 155 158 162 165 167 173 177 176 178 179 177 173 167 168 173 180 185 184 155 143 151 164 179 185 182 182 190 192 194 199 198 197 204 207 206 204 205 211 220 228 240 247 255 264 259 247 246 248 246 241 236 233 229 220 218 220 216 210 212 214 210 210 215 214 213 214 211 212 222
126 126 127 126 120 117 120 123 126 127 127 126 125 123 129 142 151 145 143 155 165 170 178 177 175 180 179 171 166 168 174 184 186 190 190 182 179 188 201 203 201 203 209 211 214 216 215 215 212 209 207 204 203 211 226 237 248 252 255 259 259 257 257 256 257 261 260 254 250 242 231 226 223 216 214 214 210 210 215 215 214 216 208 208 225
113 119 125 129 127 127 129 130 133 137 137 134 131 126 118 117 122 121 119 123 138 155 168 171 172 180 180 173 170 168 170 177 181 190 207 213 214 223 231 230 223 223 226 227 230 233 238 250 260 257 237 212 203 207 219 237 255 262 262 260 258 257 257 257 256 256 257 256 260 261 251 240 232 223 217 217 212 211 217 216 213 217 215 215 225
92 101 113 124 127 129 134 135 136 142 148 144 139 139 136 129 127 130 131 130 120 111 118 139 158 169 176 179 170 154 159 176 190 203 212 220 225 229 243 254 249 243 244 245 247 255 264 267 274 285 285 258 232 217 213 225 241 258 267 262 256 255 255 258 259 256 255 254 257 262 260 256 253 239 223 218 215 213 217 215 210 215 220 219 216
72 76 84 102 118 126 134 139 139 145 157 156 147 145 146 144 145 146 147 149 143 127 121 128 131 124 137 158 138 131 150 180 201 212 215 223 231 233 246 260 261 258 260 261 264 270 272 265 261 266 270 266 255 233 216 227 235 240 250 249 247 249 248 249 251 252 253 252 252 261 265 261 260 255 234 220 213 212 216 214 212 214 211 199 185
64 63 67 79 99 111 117 127 132 138 149 154 151 147 147 149 154 153 152 155 159 160 159 148 128 114 115 112 114 149 191 201 206 217 221 225 232 238 250 260 263 264 266 269 271 271 265 261 265 265 260 263 261 245 234 247 254 249 251 250 248 245 240 242 247 252 254 252 248 250 256 256 253 248 235 219 208 207 211 207 205 206 197 189 188
63 64 67 72 78 84 85 89 100 112 125 137 142 143 142 143 146 146 144 148 157 166 167 153 127 116 123 124 135 177 199 202 207 215 218 225 231 234 246 258 261 263 265 268 272 273 265 261 264 264 260 264 266 257 255 264 268 264 262 260 257 250 240 241 248 253 256 256 253 248 248 253 251 239 228 217 207 205 200 182 178 190 199 206 208
59 64 69 74 76 79 82 82 85 92 99 108 117 127 136 140 143 146 148 151 155 156 152 142 133 133 142 145 147 170 195 210 216 217 219 226 228 227 239 258 261 261 266 269 272 276 276 272 262 250 254 266 268 263 263 267 269 270 269 267 266 264 255 247 248 254 256 256 255 250 244 242 232 216 206 198 195 194 186 179 185 195 207 220 221
55 58 63 70 72 72 77 82 86 88 90 92 96 104 122 135 139 149 160 162 156 149 149 151 154 159 166 167 154 160 206 228 226 228 232 236 239 240 247 261 266 268 274 280 280 278 280 284 276 259 261 273 271 261 261 267 270 269 269 268 266 269 271 258 248 254 258 256 256 253 245 236 223 213 202 194 197 198 190 201 215 212 216 229 232
50 53 56 63 68 69 73 81 86 88 91 94 93 93 101 111 124 147 163 161 150 148 152 151 151 156 170 182 173 159 214 241 225 223 230 236 250 257 263 278 285 284 284 288 291 291 294 298 293 277 272 275 271 264 263 267 269 268 270 274 270 267 265 250 241 250 250 243 242 231 220 218 212 211 207 200 204 201 188 200 222 217 218 234 237
44 48 51 55 59 62 63 67 73 77 83 90 93 94 96 95 103 128 141 137 135 147 149 141 139 144 156 169 169 166 181 198 174 157 166 202 223 212 222 274 290 292 292 292 291 295 303 305 285 268 279 285 284 278 271 268 267 265 264 263 262 261 254 242 242 248 233 215 208 193 184 189 194 193 190 186 188 185 177 181 185 166 162 168 202
37 41 46 48 49 50 50 51 55 58 62 72 80 85 87 84 84 94 98 94 99 116 132 137 138 140 141 139 133 130 122 96 90 88 87 89 105 152 194 244 278 289 296 303 303 302 307 307 280 277 288 294 293 288 281 276 272 268 262 256 255 255 248 236 232 222 203 191 185 178 175 177 177 175 172 170 168 163 165 173 177 170 152 129 112
33 36 39 41 42 43 43 43 45 46 46 52 59 63 67 71 73 75 79 86 92 92 97 110 120 127 134 132 123 118 106 75 62 58 60 63 63 81 182 278 305 304 303 316 324 324 327 330 307 293 295 299 298 294 290 285 278 272 267 257 252 251 245 233 221 205 195 186 171 166 171 173 170 173 175 167 150 134 127 144 173 185 172 148 131
33 33 33 35 37 38 39 39 40 41 40 43 47 48 48 53 59 57 51 55 68 75 70 68 76 93 107 111 112 115 117 100 57 36 33 32 25 24 14 346 337 330 316 316 321 323 326 325 315 305 300 299 300 299 297 293 284 276 269 256 247 245 239 227 213 198 193 189 178 175 182 182 180 182 174 157 146 140 137 139 156 171 167 163 180
33 32 30 31 31 33 37 38 37 37 37 39 42 41 37 40 45 44 42 40 40 42 44 44 49 51 46 66 92 89 93 129 76 20 18 17 14 9 2 352 345 340 328 312 310 311 311 312 313 312 308 305 304 304 300 297 292 283 273 258 245 238 227 217 208 195 192 195 190 188 193 190 183 176 166 158 157 157 151 145 144 155 171 180 196
34 32 31 32 33 34 38 39 37 36 37 39 41 39 37 39 40 38 39 40 38 35 30 24 37 49 44 51 57 7 325 252 70 36 25 17 9 2 355 349 346 347 342 329 324 322 317 316 319 319 317 314 310 306 300 296 295 289 274 255 240 232 226 219 211 199 197 199 196 194 192 179 165 163 164 165 160 152 150 150 141 135 148 155 163
40 40 37 38 42 43 46 48 47 44 43 44 45 41 36 39 43 40 32 25 23 31 32 29 35 34 27 24 4 319 37 49 43 37 26 8 352 344 338 331 337 349 349 338 336 333 324 324 330 330 328 327 322 313 306 299 295 288 271 252 236 228 227 226 221 214 208 202 198 191 178 164 155 154 153 146 139 139 147 148 137 133 140 139 144
47 50 46 47 51 51 52 54 55 59 61 59 52 42 35 39 48 44 32 23 19 20 23 35 39 22 11 17 360 341 42 46 33 15 5 355 342 332 327 324 333 347 341 324 326 328 320 320 326 329 330 331 327 320 316 309 299 288 271 252 234 224 223 228 229 223 211 202 194 174 156 154 153 149 145 139 134 135 139 137 135 141 149 155 185
50 50 47 45 44 45 50 51 50 60 76 82 72 57 47 50 60 55 46 45 44 34 27 34 35 17 10 25 21 6 24 35 29 19 14 7 357 345 334 325 322 324 317 310 313 317 311 305 305 304 307 312 312 309 309 307 302 295 281 256 238 230 229 230 225 217 211 208 192 163 150 152 151 147 144 140 134 134 135 131 130 132 133 157 229
54 52 49 39 31 32 41 44 42 45 57 83 94 81 66 60 63 67 65 62 60 57 52 51 48 37 31 36 34 29 31 32 30 30 27 20 15 8 354 338 322 313 309 307 310 312 305 294 291 292 296 301 307 312 312 309 305 299 288 267 246 241 241 232 219 213 215 210 189 167 158 156 152 147 146 144 141 141 141 132 121 119 125 175 245
53 54 52 42 29 27 35 41 41 42 45 53 89 106 95 79 70 69 72 71 67 66 66 64 61 61 61 56 45 37 36 34 32 30 24 18 16 12 5 358 344 326 316 314 312 304 294 289 290 294 300 304 306 310 311 308 305 302 293 275 249 238 236 230 220 213 205 190 175 165 160 156 152 148 145 141 137 134 134 129 121 124 145 193 262
45 50 55 52 40 37 44 48 44 46 49 46 46 82 111 110 100 90 84 80 77 75 74 69 63 59 60 64 56 37 30 30 29 23 17 13 9 4 1 360 355 347 339 329 313 298 295 297 299 305 313 316 315 316 318 314 308 306 296 280 259 238 228 223 219 208 186 166 159 158 154 148 146 145 141 137 133 131 132 132 128 131 151 232 265
45 40 35 37 45 47 47 47 46 46 47 46 41 40 51 79 108 120 120 112 100 90 80 72 65 58 53 54 50 39 30 26 21 15 11 8 2 357 355 350 344 351 359 345 312 301 308 311 310 312 316 315 313 319 326 320 310 304 295 285 276 251 228 218 207 190 170 153 145 144 142 134 132 136 137 135 132 127 125 127 131 146 192 248 260
56 49 34 28 43 51 45 41 43 42 40 43 46 44 41 39 42 71 122 131 124 113 100 81 62 50 44 41 39 35 29 23 18 14 8 2 359 357 352 336 317 322 358 351 321 317 327 329 329 330 329 324 319 318 318 313 305 299 292 286 277 250 224 209 194 178 165 153 142 140 140 135 130 129 130 129 124 119 122 132 147 177 205 227 249
66 63 48 39 42 46 41 36 34 33 33 39 45 43 40 37 34 35 49 59 56 98 117 99 72 51 38 29 28 33 35 31 25 20 15 11 7 354 338 325 315 313 330 337 335 338 343 344 345 345 343 341 336 326 319 315 308 300 296 288 270 240 208 191 184 177 167 156 149 147 148 148 143 134 127 125 122 118 129 147 166 202 226 244 254
57 59 46 36 35 38 40 37 33 33 28 22 34 48 41 32 32 38 42 40 24 11 44 79 82 67 44 30 27 33 37 36 34 30 27 27 20 360 342 343 351 348 339 341 349 352 349 348 349 345 341 339 338 332 327 322 314 307 305 293 258 211 174 162 160 158 152 148 147 150 154 156 151 138 123 122 125 129 143 165 207 228 237 247 251
44 34 23 13 5 10 40 52 42 33 19 360 11 49 48 35 36 40 40 39 26 11 16 34 57 62 37 23 16 11 12 22 37 35 29 25 20 12 6 5 4 358 352 354 357 352 348 349 349 344 340 337 336 337 336 329 326 329 324 271 202 171 157 152 153 154 153 153 152 151 148 143 135 123 112 116 127 147 175 214 239 238 238 251 266
38 23 15 3 343 345 12 60 43 22 14 15 30 45 41 36 40 42 46 47 36 25 31 35 33 32 21 9 1 358 359 7 30 28 22 21 19 17 17 13 8 5 2 0 1 358 354 354 354 348 344 340 337 339 340 333 330 338 318 221 181 164 160 161 163 166 165 164 163 159 147 138 133 127 122 129 171 209 218 232 244 243 237 241 253
37 29 29 29 12 9 21 42 43 33 33 39 48 46 37 37 40 36 41 46 35 29 31 25 28 35 19 4 2 6 5 9 24 25 22 22 20 19 23 22 18 16 10 4 3 2 358 0 2 357 353 351 346 346 348 343 336 329 256 206 183 176 180 180 175 172 166 160 163 159 148 143 147 145 143 185 234 236 233 240 253 256 254 247 243
10 30 27 18 15 33 46 48 51 55 51 44 45 43 39 40 37 32 34 33 30 30 21 10 29 41 15 358 1 6 353 353 21 32 29 28 26 26 32 31 25 22 17 10 8 5 1 4 8 7 6 6 4 1 357 348 340 329 253 208 185 186 196 194 185 177 166 155 154 154 148 146 156 171 205 249 257 252 248 252 253 255 265 273 274
348 6 28 23 18 59 69 64 66 67 54 47 49 48 44 40 34 34 36 30 28 34 20 9 41 45 14 355 356 356 343 351 28 37 32 34 34 33 35 34 30 28 24 18 14 12 10 10 11 10 7 4 4 10 10 358 348 338 284 224 200 202 208 202 192 184 174 158 148 148 150 155 171 193 229 265 277 274 263 256 254 252 252 262 275
343 346 33 44 33 41 61 81 102 100 69 56 56 52 50 50 45 46 48 37 31 35 24 15 33 37 20 14 20 14 4 20 41 39 34 37 37 36 37 37 35 33 30 26 24 19 17 19 19 16 14 9 0 359 5 5 4 355 315 251 216 210 209 202 194 188 178 155 141 145 164 195 200 200 221 261 273 275 273 271 280 285 276 270 282
349 7 46 52 51 62 64 69 82 71 51 56 68 63 53 56 53 52 55 45 33 34 31 26 25 24 23 29 35 28 25 34 39 34 34 36 36 38 38 38 39 38 33 33 34 30 28 32 31 28 29 29 26 17 5 359 10 16 2 308 203 204 208 205 199 190 171 149 141 153 177 191 186 188 217 255 271 287 295 297 298 299 294 286 282
309 347 109 117 103 100 102 88 83 76 70 92 107 93 65 60 58 51 52 47 36 34 35 35 32 28 28 32 35 34 37 39 35 34 38 40 43 46 43 39 47 51 44 41 45 47 44 41 38 34 34 34 34 33 29 22 20 33 53 92 148 178 188 188 184 173 155 147 153 154 144 148 176 204 241 258 273 291 300 302 294 289 294 302 302
263 240 165 165 157 124 129 125 120 133 161 159 140 109 71 68 66 51 46 45 38 37 41 41 38 37 37 37 37 40 43 43 41 42 44 47 56 63 59 53 58 63 58 53 54 58 61 60 56 52 49 43 39 40 40 38 36 40 69 124 149 158 159 158 156 145 130 134 146 147 144 159 203 238 262 276 284 284 295 314 316 292 283 294 301
230 223 209 204 204 122 167 175 159 162 172 161 130 89 64 73 75 62 58 54 39 37 47 49 46 45 45 45 48 50 49 48 49 51 54 59 68 73 70 63 60 63 64 61 57 58 63 68 68 65 61 56 51 47 44 45 48 50 59 93 129 144 151 155 153 141 127 123 124 127 172 221 227 249 265 275 287 293 303 322 325 309 295 297 296
227 226 217 212 213 197 188 186 39 69 117 122 118 127 112 85 79 84 101 105 80 51 50 53 52 53 51 49 53 57 58 57 59 60 61 65 71 75 75 68 59 57 62 63 59 56 57 60 63 65 64 64 62 58 54 55 59 61 64 73 90 106 118 130 138 136 136 139 134 122 163 262 256 263 262 263 281 294 299 303 297 282 273 277 282
222 232 230 225 231 221 195 169 73 85 145 148 149 168 165 134 118 129 143 135 105 67 54 54 56 57 55 49 49 58 65 69 69 67 63 61 61 64 67 66 60 55 56 59 59 56 54 54 58 62 62 62 64 65 63 62 64 67 69 71 74 80 89 101 113 121 132 148 154 142 342 310 298 305 320 323 307 305 305 306 306 303 295 285 283
221 228 231 230 239 242 226 209 203 195 187 188 196 197 196 182 161 169 169 125 98 82 75 76 67 57 57 58 57 64 71 71 70 69 62 55 51 51 55 59 59 54 50 51 52 51 49 49 53 59 61 59 59 60 62 62 62 61 62 64 66 68 73 81 98 114 117 114 113 275 313 327 318 308 308 312 309 302 302 305 309 310 307 301 294
232 230 235 235 235 241 244 239 232 222 215 221 220 210 219 241 224 207 212 190 134 100 85 90 94 89 83 70 60 65 72 68 64 62 59 53 47 41 35 35 37 42 49 52 50 47 46 44 43 46 52 54 53 51 48 49 53 53 52 53 53 54 61 70 84 119 136 98 55 26 319 323 351 349 340 335 328 313 307 307 309 306 297 291 290
247 242 244 242 238 241 242 239 238 234 227 229 230 216 216 225 220 222 240 243 187 134 125 121 119 123 118 117 120 137 127 110 77 57 49 44 39 28 17 18 28 43 56 59 55 50 50 46 42 40 36 34 40 46 43 38 41 44 42 39 36 34 39 49 35 356 199 123 58 40 18 359 4 1 328 308 316 345 342 326 314 310 304 297 296